www.pogodaiklimat.ru

Погода и климат >> Архив погоды >> Бразилия >> Мату-Гросу >> Кампу-Нову-ду-Паресис


ПОГОДА в Кампу-Нову-ду-Паресисе

  • Прогноз погоды в Кампу-Нову-ду-Паресисе
  • Монитор погоды в Кампу-Нову-ду-Паресисе

АРХИВ ПОГОДЫ в Кампу-Нову-ду-Паресисе

Время (UTC), дата Ветер
(напр.,м/с)
 
Видим.   Явления Облачность Т
(С)
Тd
(С)
f
(%)
Тe
(С)
Тes
(С)
Комфортность P
(гПа)
Po
(гПа)
Тmin
(С)
Tmax
(С)
R
(мм)
R24
(мм)
S
(см)
22 15.04 ЮЗ 1
{2}
н/о н/о +27.4 -21.6 3 +23 +23 комфорт 1009.6 951.0
23 15.04 ЮЗ 1
{2}
н/о н/о +26.2 -22.4 3 +22 +22 комфорт 1010.1 951.3
00 16.04 ЮЗ 1
{2}
н/о н/о +25.8 -22.7 3 +22 +22 комфорт 1010.8 951.9
01 16.04 ЮЗ 1
{2}
н/о н/о +24.6 -23.6 3 +21 +21 комфорт 1012.1 952.9
02 16.04 штиль 0
{1}
н/о н/о +24.3 -23.7 3 +21 +21 комфорт 1012.6 953.3
03 16.04 штиль 0
{1}
н/о н/о +23.8 -24.0 3 +20 +20 1012.7 953.3
04 16.04 ЮЗ 1
{2}
н/о н/о +24.7 -23.5 3 +21 +21 комфорт 1013.0 953.7
05 16.04 штиль 0
{2}
н/о н/о +24.0 -24.0 3 +21 +21 комфорт 1012.8 953.4
06 16.04 штиль 0
{1}
н/о н/о +23.7 -24.1 3 +20 +20 1011.6 952.2
07 16.04 штиль 0
{1}
н/о н/о +23.5 -24.3 3 +20 +20 1011.5 952.1
08 16.04 штиль 0
{1}
н/о н/о +22.9 -24.6 3 +20 +20 1011.7 952.2
09 16.04 ЮЗ 1
{1}
н/о н/о +22.8 -24.7 3 +20 +20 1012.2 952.6
10 16.04 ЮЗ 1
{2}
н/о н/о +23.1 -24.5 3 +20 +20 1013.5 953.9
11 16.04 ЮЗ 2
{3}
н/о н/о +23.1 -24.5 3 +20 +20 1013.9 954.3
12 16.04 ЮЗ 2
{4}
н/о н/о +24.1 -23.9 3 +21 +21 комфорт 1014.1 954.6
13 16.04 ЮЗ 2
{4}
н/о н/о +25.1 -23.2 3 +21 +21 комфорт 1014.1 954.8 0.2
14 16.04 ЮЗ 1
{3}
н/о н/о +27.6 -21.5 3 +23 +23 комфорт 1013.9 955.1
15 16.04 ЮЗ 1
{2}
н/о н/о +28.6 -20.8 3 +24 +24 комфорт 1013.0 954.5
16 16.04 ЮЗ 1
{3}
н/о н/о +29.1 -20.5 3 +25 +25 комфорт 1012.2 953.8
17 16.04 ЮЗ 1
{3}
н/о н/о +28.7 -20.7 3 +24 +24 комфорт 1010.9 952.5
18 16.04 ЮЗ 1
{2}
н/о н/о +29.4 -20.3 3 +25 +25 комфорт 1009.8 951.6
19 16.04 ЮЗ 1
{4}
н/о н/о +25.5 -22.9 3 +22 +22 комфорт 1009.6 950.7
20 16.04 ЮЗ 1
{2}
н/о н/о +25.5 -22.9 3 +22 +22 комфорт 1009.3 950.4
21 16.04 ЮЗ 1
{2}
н/о н/о +24.9 -23.3 3 +21 +21 комфорт 1010.1 951.0
22 16.04 ЮЗ 1
{2}
н/о н/о +23.6 -24.2 3 +20 +20 1010.4 951.1
23 16.04 ЮЗ 1
{1}
н/о н/о +23.3 -24.4 3 +20 +20 1011.3 951.9
00 17.04 ЮЗ 1
{1}
н/о н/о +23.1 -24.5 3 +20 +20 1012.2 952.7
01 17.04 штиль 0
{1}
н/о н/о +23.0 -24.6 3 +20 +20 1012.6 953.0
02 17.04 штиль 0
{1}
н/о н/о +22.8 -24.7 3 +20 +20 1012.2 952.6
03 17.04 штиль 0
{1}
н/о н/о +22.8 -24.7 3 +20 +20 1012.0 952.4
04 17.04 штиль 0
{1}
н/о н/о +22.6 -24.9 3 +20 +20 1011.4 951.8
05 17.04 штиль 0
{1}
н/о н/о +21.9 -25.3 3 +19 +19 1011.3 951.6
06 17.04 штиль 0
{1}
н/о н/о +21.8 -25.4 3 +19 +19 1011.1 951.4
07 17.04 штиль 0
{1}
н/о н/о +22.2 -25.2 3 +19 +19 1011.2 951.5
08 17.04 штиль 0 н/о н/о +22.0 -25.3 3 +19 +19 1011.1 951.4
09 17.04 ЮЗ 1
{2}
н/о н/о +21.8 -25.4 3 +19 +19 1011.0 951.3
10 17.04 штиль 0
{2}
н/о н/о +21.9 -25.4 3 +19 +19 1011.7 952.0
11 17.04 ЮЗ 1
{1}
н/о н/о +22.1 -25.2 3 +19 +19 1012.4 952.7
12 17.04 ЮЗ 1
{2}
н/о н/о +22.6 -24.9 3 +20 +20 1012.9 953.2
13 17.04 ЮЗ 1
{2}
н/о н/о +23.6 -24.2 3 +20 +20 1013.4 953.9 0.2
14 17.04 ЮЗ 1
{2}
н/о н/о +26.0 -22.6 3 +22 +22 комфорт 1012.7 953.7
15 17.04 ЮЗ 1
{3}
н/о н/о +28.2 -21.1 3 +24 +24 комфорт 1011.8 953.3
16 17.04 ЮЗ 1
{2}
н/о н/о +29.8 -20.0 3 +25 +25 комфорт 1010.2 952.1
17 17.04 ЮЗ 1
{3}
н/о н/о +28.6 -20.8 3 +24 +24 комфорт 1009.2 950.9
18 17.04 ЮЗ 2
{4}
н/о н/о +26.2 -22.5 3 +22 +22 комфорт 1009.6 950.8
19 17.04 ЮЗ 1
{5}
н/о н/о +22.2 -25.1 3 +19 +19 1009.6 950.0
20 17.04 штиль 0
{3}
н/о н/о +22.5 -24.9 3 +20 +20 1009.6 950.1
21 17.04 ЮЗ 1
{2}
н/о н/о +22.8 -24.7 3 +20 +20 1010.2 950.7
22 17.04 ЮЗ 1
{2}
н/о н/о +22.5 -25.0 3 +20 +20 1009.9 950.4
23 17.04 ЮЗ 1
{1}
н/о н/о +22.5 -24.9 3 +20 +20 1010.8 951.2
00 18.04 штиль 0
{2}
н/о н/о +22.2 -25.1 3 +19 +19 1011.4 951.7
01 18.04 штиль 0
{1}
н/о н/о +22.1 -25.2 3 +19 +19 1011.8 952.1
02 18.04 штиль 0
{1}
н/о н/о +21.9 -25.3 3 +19 +19 1011.7 952.0
03 18.04 штиль 0 н/о н/о +22.0 -25.3 3 +19 +19 1011.7 952.0
04 18.04 штиль 0 н/о н/о +21.8 -25.4 3 +19 +19 1011.6 951.8
05 18.04 ЮЗ 1
{1}
н/о н/о +21.4 -25.7 3 +19 +19 1011.0 951.2
06 18.04 штиль 0
{1}
н/о н/о +21.2 -25.8 3 +19 +19 1010.8 951.0
07 18.04 штиль 0 н/о н/о +21.0 -26.0 3 +19 +19 1011.0 951.1
08 18.04 штиль 0
{1}
н/о н/о +20.7 -26.2 3 +19 +19 1010.9 951.0
09 18.04 штиль 0
{1}
н/о н/о +20.6 -26.2 3 +19 +19 1011.2 951.2
10 18.04 штиль 0
{1}
н/о н/о +20.5 -26.3 3 +19 +19 1011.6 951.6
11 18.04 штиль 0
{1}
н/о н/о +21.1 -25.9 3 +19 +19 1012.5 952.6
12 18.04 штиль 0
{1}
н/о н/о +22.8 -24.8 3 +20 +20 1012.6 953.0 0.2
13 18.04 ЮЗ 1
{1}
н/о н/о +26.8 -22.0 3 +23 +23 комфорт 1012.3 953.5
14 18.04 ЮЗ 1
{2}
н/о н/о +28.9 -20.6 3 +24 +24 комфорт 1012.0 953.6
15 18.04 ЮЗ 1
{2}
н/о н/о +28.9 -20.6 3 +24 +24 комфорт 1011.3 952.9
16 18.04 ЮЗ 1
{3}
н/о н/о +30.4 -19.7 3 +26 +26 жарко 1010.2 952.2
17 18.04 ЮЗ 1
{3}
н/о н/о +30.6 -19.5 3 +26 +26 жарко 1008.8 950.9
18 18.04 ЮЗ 1
{3}
н/о н/о +30.2 -19.8 3 +26 +26 жарко 1007.5 949.6
19 18.04 ЮЗ 1
{3}
н/о н/о +30.9 -19.3 3 +26 +26 жарко 1006.4 948.7
20 18.04 ЮЗ 1
{3}
н/о н/о +30.5 -19.5 3 +26 +26 жарко 1006.1 948.3
21 18.04 ЮЗ 1
{3}
н/о н/о +29.4 -20.3 3 +25 +25 комфорт 1006.6 948.6
22 18.04 ЮЗ 1
{3}
н/о н/о +26.3 -22.4 3 +22 +22 комфорт 1007.9 949.2
23 18.04 ЮЗ 1
{2}
н/о н/о +25.3 -23.1 3 +22 +22 комфорт 1008.6 949.7
01 19.04 штиль 0
{1}
н/о н/о +23.8 -24.1 3 +20 +20 1010.8 951.5
02 19.04 ЮЗ 1
{2}
н/о н/о +23.3 -24.4 3 +20 +20 1011.3 951.9
03 19.04 ЮЗ 1
{2}
н/о н/о +23.5 -24.3 3 +20 +20 1011.3 951.9
04 19.04 штиль 0
{2}
н/о н/о +23.1 -24.6 3 +20 +20 1011.2 951.7
05 19.04 штиль 0
{1}
н/о н/о +22.3 -25.1 3 +19 +19 1010.8 951.2
06 19.04 штиль 0 н/о н/о +22.3 -25.0 3 +19 +19 1010.4 950.8
07 19.04 штиль 0
{1}
н/о н/о +21.9 -25.3 3 +19 +19 1010.6 950.9
08 19.04 штиль 0
{1}
н/о н/о +21.8 -25.4 3 +19 +19 1010.6 950.9
09 19.04 штиль 0
{1}
н/о н/о +21.5 -25.6 3 +19 +19 1011.0 951.2
10 19.04 штиль 0 н/о н/о +21.5 -25.6 3 +19 +19 1011.4 951.6
11 19.04 штиль 0 н/о н/о +22.3 -25.0 3 +19 +19 1012.2 952.5
12 19.04 штиль 0
{1}
н/о н/о +25.4 -23.0 3 +22 +22 комфорт 1012.2 953.1
13 19.04 ЮЗ 1
{2}
н/о н/о +28.2 -21.1 3 +24 +24 комфорт 1012.0 953.5
14 19.04 ЮЗ 2
{3}
н/о н/о +29.7 -20.1 3 +25 +25 комфорт 1011.8 953.5
15 19.04 ЮЗ 2
{3}
н/о н/о +29.8 -20.0 3 +25 +25 комфорт 1011.4 953.2
16 19.04 ЮЗ 2
{4}
н/о н/о +31.1 -19.2 3 +26 +26 жарко 1010.4 952.5
17 19.04 ЮЗ 2
{3}
н/о н/о +31.1 -19.2 3 +26 +26 жарко 1009.2 951.4
18 19.04 ЮЗ 2
{4}
н/о н/о +31.8 -18.7 3 +27 +27 жарко 1007.7 950.1
19 19.04 ЮЗ 2
{3}
н/о н/о +31.9 -18.7 3 +27 +27 жарко 1006.4 948.9
20 19.04 ЮЗ 1
{3}
н/о н/о +31.5 -18.9 3 +27 +27 жарко 1006.0 948.4
21 19.04 ЮЗ 1
{4}
н/о н/о +28.8 -20.7 3 +24 +24 комфорт 1007.0 948.9
22 19.04 ЮЗ 1
{2}
н/о н/о +27.4 -21.6 3 +23 +23 комфорт 1007.6 949.2
23 19.04 штиль 0
{1}
н/о н/о +26.7 -22.1 3 +23 +23 комфорт 1008.4 949.8
01 20.04 штиль 0
{1}
н/о н/о +24.8 -23.4 3 +21 +21 комфорт 1010.6 951.5
02 20.04 штиль 0
{1}
н/о н/о +24.9 -23.3 3 +21 +21 комфорт 1010.6 951.5
03 20.04 штиль 0 н/о н/о +24.7 -23.5 3 +21 +21 комфорт 1011.0 951.8
04 20.04 штиль 0
{1}
н/о н/о +24.3 -23.7 3 +21 +21 комфорт 1011.4 952.1
05 20.04 штиль 0
{1}
н/о н/о +24.3 -23.7 3 +21 +21 комфорт 1011.0 951.8
06 20.04 штиль 0
{1}
н/о н/о +23.5 -24.3 3 +20 +20 1010.9 951.5 0.2
07 20.04 штиль 0 н/о н/о +23.1 -24.6 3 +20 +20 1010.9 951.4
08 20.04 ЮЗ 1
{2}
н/о н/о +22.7 -24.8 3 +20 +20 1010.9 951.4
09 20.04 штиль 0
{1}
н/о н/о +22.8 -24.7 3 +20 +20 1011.5 951.9
10 20.04 штиль 0
{1}
н/о н/о +22.1 -25.2 3 +19 +19 1012.6 952.8
11 20.04 ЮЗ 1
{2}
н/о н/о +22.5 -24.9 3 +20 +20 1013.5 953.8
12 20.04 штиль 0
{1}
н/о н/о +23.0 -24.6 3 +20 +20 1014.0 954.3
13 20.04 ЮЗ 1
{2}
н/о н/о +25.1 -23.2 3 +21 +21 комфорт 1013.8 954.6
14 20.04 ЮЗ 2
{3}
н/о н/о +27.9 -21.3 3 +24 +24 комфорт 1013.2 954.5
15 20.04 ЮЗ 2
{4}
н/о н/о +29.4 -20.3 3 +25 +25 комфорт 1012.1 953.8
16 20.04 ЮЗ 2
{3}
н/о н/о +30.0 -19.9 3 +25 +25 комфорт 1011.2 953.0
17 20.04 ЮЗ 2
{4}
н/о н/о +30.6 -19.5 3 +26 +26 жарко 1010.0 952.0
18 20.04 ЮЗ 1
{4}
н/о н/о +31.6 -18.8 3 +27 +27 жарко 1008.0 950.3
19 20.04 ЮЗ 2
{4}
н/о н/о +31.3 -19.0 3 +27 +27 жарко 1007.0 949.3
20 20.04 ЮЗ 1
{4}
н/о н/о +30.4 -19.7 3 +26 +26 жарко 1006.6 948.8
21 20.04 ЮЗ 1
{3}
н/о н/о +29.0 -20.5 3 +24 +24 комфорт 1007.6 949.5
22 20.04 ЮЗ 1
{2}
н/о н/о +27.5 -21.6 3 +23 +23 комфорт 1008.4 949.9
23 20.04 штиль 0
{2}
н/о н/о +26.9 -22.0 3 +23 +23 комфорт 1008.8 950.2
01 21.04 штиль 0
{1}
н/о н/о +25.4 -23.0 3 +22 +22 комфорт 1010.4 951.4
02 21.04 штиль 0
{1}
н/о н/о +24.8 -23.4 3 +21 +21 комфорт 1010.8 951.7
03 21.04 штиль 0
{1}
н/о н/о +24.9 -23.3 3 +21 +21 комфорт 1010.9 951.8
04 21.04 ЮЗ 1
{2}
н/о н/о +24.4 -23.7 3 +21 +21 комфорт 1011.2 952.0
05 21.04 ЮЗ 1
{2}
н/о н/о +24.0 -23.9 3 +21 +21 комфорт 1010.9 951.6
06 21.04 ЮЗ 1
{2}
н/о н/о +23.2 -24.5 3 +20 +20 1010.8 951.4
07 21.04 ЮЗ 1
{2}
н/о н/о +23.6 -24.2 3 +20 +20 1010.2 950.9
08 21.04 ЮЗ 1
{2}
н/о н/о +23.4 -24.4 3 +20 +20 1010.4 951.0
09 21.04 штиль 0
{2}
н/о н/о +22.9 -24.6 3 +20 +20 1010.7 951.2
10 21.04 штиль 0
{2}
н/о н/о +22.8 -24.7 3 +20 +20 1011.3 951.8
11 21.04 штиль 0
{1}
н/о н/о +23.0 -24.6 3 +20 +20 1012.0 952.5
12 21.04 штиль 0
{1}
н/о н/о +24.0 -23.9 3 +21 +21 комфорт 1012.3 952.9
13 21.04 ЮЗ 1
{2}
н/о н/о +27.9 -21.3 3 +24 +24 комфорт 1011.9 953.3
14 21.04 ЮЗ 1
{3}
н/о н/о +29.1 -20.5 3 +25 +25 комфорт 1012.0 953.6
15 21.04 ЮЗ 1
{3}
н/о н/о +29.1 -20.5 3 +25 +25 комфорт 1011.6 953.2
16 21.04 ЮЗ 2
{3}
н/о н/о +30.3 -19.7 3 +26 +26 жарко 1010.0 952.0
17 21.04 ЮЗ 2
{5}
н/о н/о +30.5 -19.6 3 +26 +26 жарко 1008.5 950.6
18 21.04 ЮЗ 2
{5}
н/о н/о +31.1 -19.2 3 +26 +26 жарко 1006.7 949.0
19 21.04 ЮЗ 2
{5}
н/о н/о +30.2 -19.8 3 +26 +26 жарко 1006.7 948.8
20 21.04 ЮЗ 1
{3}
н/о н/о +29.6 -20.2 3 +25 +25 комфорт 1006.8 948.8
21 21.04 ЮЗ 1
{2}
н/о н/о +28.6 -20.8 3 +24 +24 комфорт 1007.6 949.4
22 21.04 ЮЗ 1
{2}
н/о н/о +27.2 -21.8 3 +23 +23 комфорт 1007.5 949.0
23 21.04 ЮЗ 1
{2}
н/о н/о +26.3 -22.4 3 +22 +22 комфорт 1008.7 950.0
00 22.04 ЮЗ 1
{2}
н/о н/о +26.5 -22.3 3 +22 +22 комфорт 1009.5 950.8
01 22.04 ЮЗ 1
{2}
н/о н/о +25.8 -22.7 3 +22 +22 комфорт 1009.8 950.9
02 22.04 штиль 0
{2}
н/о н/о +24.5 -23.6 3 +21 +21 комфорт 1010.6 951.4
03 22.04 штиль 0
{1}
н/о н/о +24.0 -23.9 3 +21 +21 комфорт 1010.6 951.3
04 22.04 ЮЗ 1
{1}
н/о н/о +23.6 -24.2 3 +20 +20 1010.8 951.4
05 22.04 штиль 0
{2}
н/о н/о +23.4 -24.3 3 +20 +20 1010.2 950.8
06 22.04 ЮЗ 1
{1}
н/о н/о +22.7 -24.8 3 +20 +20 1010.1 950.6
07 22.04 ЮЗ 1
{2}
н/о н/о +23.2 -24.5 3 +20 +20 1009.8 950.4
08 22.04 штиль 0
{2}
н/о н/о +22.8 -24.7 3 +20 +20 1009.8 950.3
09 22.04 ЮЗ 1
{2}
н/о н/о +22.9 -24.7 3 +20 +20 1010.4 950.9
10 22.04 ЮЗ 1
{2}
н/о н/о +22.6 -24.9 3 +20 +20 1010.9 951.3
11 22.04 ЮЗ 1
{2}
н/о н/о +23.4 -24.3 3 +20 +20 1011.0 951.6
12 22.04 ЮЗ 1
{2}
н/о н/о +25.4 -23.0 3 +22 +22 комфорт 1011.4 952.4
13 22.04 ЮЗ 1
{2}
н/о н/о +26.3 -22.4 3 +22 +22 комфорт 1011.9 953.0 0.2
14 22.04 ЮЗ 2
{3}
н/о н/о +27.0 -21.9 3 +23 +23 комфорт 1012.3 953.5
15 22.04 ЮЗ 1
{3}
н/о н/о +28.2 -21.1 3 +24 +24 комфорт 1010.9 952.4
16 22.04 ЮЗ 2
{3}
н/о н/о +29.1 -20.5 3 +25 +25 комфорт 1009.0 950.8
17 22.04 ЮЗ 1
{3}
н/о н/о +28.1 -21.2 3 +24 +24 комфорт 1008.6 950.2
18 22.04 ЮЗ 2
{4}
н/о н/о +24.4 -23.7 3 +21 +21 комфорт 1009.0 949.9
19 22.04 ЮЗ 1
{4}
н/о н/о +23.0 -24.6 3 +20 +20 1008.8 949.4
20 22.04 ЮЗ 1
{3}
н/о н/о +22.5 -25.0 3 +20 +20 1009.1 949.6
21 22.04 ЮЗ 1
{3}
н/о н/о +21.9 -25.4 3 +19 +19 1009.9 950.3

 

Местоположение метеостанции Кампу-Нову-ду-Паресис (Мату-Гросу, Бразилия): широта -13.78 долгота -57.83 высота над уровнем моря 572 м.

В архиве по умолчанию представлена погода в Кампу-Нову-ду-Паресисе за последнюю неделю. Архивные данные за месяц целиком и за предыдущие месяцы, начиная с января 2011 года, Вы можете получить, выбрав интересующий диапазон дат из раскрывающегося списка и нажав кнопку "Ввод!".


*Определитесь, кто Вы:
робот инопланетянин человек

Внимание! Время в таблицах - всемирное. Для получения местного времени необходимо прибавить поправку, которая равна -3 ч.

Смотрите также архив погоды в соседних городах и на ближайших метеорологических станциях:

Погода в Тангара-да-Серре (Мату-Гросу, Бразилия) (106 км)
Погода в Нова-Маринге (Мату-Гросу, Бразилия) (115 км)
Погода в Сан-Хосе-ду-Рио-Кларо (Мату-Гросу, Бразилия) (131 км)
Погода в Ново-Мундо (Мату-Гросу, Бразилия) (147 км)
Погода в Салту-ду-Сеу (Мату-Гросу, Бразилия) (154 км)
Погода в Диамантину (Мату-Гросу, Бразилия) (164 км)
Погода в Порто-Эстреле (Мату-Гросу, Бразилия) (184 км)
Погода в Комодоро (Мату-Гросу, Бразилия) (210 км)
Погода в Глеба Селеста (Мату-Гросу, Бразилия) (227 км)
Погода в Понтис-и-Ласерде (Мату-Гросу, Бразилия) (231 км)

Пояснения к столбцам:

Ветер - указаны скорость ветра в м/с - средняя за 10 мин, порывы в срок и между сроками (в фигурных скобках) и направление, откуда дует ветер: С - северный, СВ - северо-восточный, В - восточный, ЮВ - юго-восточный, Ю - южный, ЮЗ - юго-западный, З - западный, СЗ - северо-западный.
Видимость - горизонтальная дальность видимости в метрах или километрах. При видимости от 1 до 10 км при отсутствии осадков обычно наблюдается дымка, при ухудшении видимости до 1 км и менее - туман. В сухую погоду видимость может ухудшаться дымом, пылью или мглою.
Явления - указаны атмосферные явления, наблюдавшиеся в срок или в последний час перед сроком; фигурными скобками обозначены явления, наблюдавшиеся между сроками (за 1-3 часа до срока); квадратными скобками обозначены град или гололедные отложения с указанием их диаметра в мм.
Облачность - указаны через наклонную черту общая и нижняя облачность в баллах и высота нижней границы облаков в метрах; квадратными скобками обозначены формы облаков: Ci - перистые, Cs - перисто-слоистые, Cc - перисто-кучевые, Ac - высококучевые, As - высокослоистые, Sc - слоисто-кучевые, Ns - слоисто-дождевые, Cu - кучевые, Cb - кучево-дождевые. Подробнее классификацию облаков см. в Атласе облаков (PDF).
T - Температура воздуха - температура, измеренная на высоте 2 м над землей.
Td - Температура точки росы - температура, при понижении до которой содержащийся в воздухе водяной пар достигнет насыщения.
f - Относительная влажность воздуха - влажноcть воздуха, измеренная на высоте 2 м над землей.
Te - Эффективная температура - температура, которую ощущает одетый по сезону человек в тени. Характеристика душности погоды. При расчете учитывается влияние влажности воздуха и скорости ветра на теплоощущения человека.
Tes - Эффективная температура на солнце - температура, которую ощущает человек, с поправкой на солнечный нагрев. Характеристика знойности погоды. Зависит от высоты солнца над горизонтом, облачности и скорости ветра. Ночью, в пасмурную погоду, а также при ветре 12 м/с и более поправка равна нулю.
P - Атмосферное давление - приведенное к уровню моря атмосферное давление.
Po - Атмосферное давление - измеренное на уровне метеостанции атмосферное давление.
Tmin - Минимальная температура - минимум температуры воздуха на высоте 2 м над землей.
Tmax - Максимальная температура - максимум температуры воздуха на высоте 2 м над землей.
R - Количество осадков - Количество выпавших осадков за период времени, мм. При наведении курсора мыши на число - период времени, за который выпало указанное количество осадков.
R24 - Количество осадков - Количество выпавших осадков за 24 часа, мм.
S - Снежный покров - Высота снежного покрова, см. При наведении курсора мыши на число - состояние снежного покрова и степень покрытия местности в баллах.